Location: Gandikunta
(16.3784°N, 80.8378°E)
Time: 22:35:34
(UTC+00:00)

ASC 2 Rocket - Pass Details

Date: 19 May 2025
Orbit: 555 x 2330 km, 24.0° (Epoch: 12 June)

Event Time Altitude Azimuth Distance (km) Brightness Sun altitude
Rises 13:44:37 0° 230° (SW) 2,766 6.8 -10.4°
Reaches altitude 10° 13:46:47 10° 221° (SW) 1,948 5.8 -10.9°
Maximum altitude 13:50:54 38° 152° (SSE) 1,068 3.9 -11.8°
Enters shadow 13:55:32 13° 88° (E) 2,293 5.4 -12.8°
